sat.trackr.live / text

‹ back to catalog

STARLINK-5014

NORAD 53926 · 2022-119AS

PAYLOAD ACTIVE UNKNOWN

§ Identity

Operator
Country
US
Launch date
2022-09-24
Launch site
AFETR
Launch vehicle
Mass (kg)
RCS (m²)

Purposes: comms

External: N2YO · Heavens-Above · Gunter

§ Orbital elements

Epoch: 2026-09-20T22:56:16.587456Z

Period
94.01 min
Inclination
53.1615°
Eccentricity
0.0001372
Mean motion
15.31709165 rev/d
Perigee alt
469.8 km
Apogee alt
471.7 km
Semi-major
6,848.8 km
B*
3.6343e-5
RAAN
116.3503°
Arg perigee
96.5532°
Mean anomaly
263.5626°
Rev number
22,189

§ Raw data

STARLINK-50141 53926U 22119AS  26263.95574754  .00000763  00000+0  36343-4 0  99932 53926  53.1615 116.3503 0001372  96.5532 263.5626 15.31709165221890

JSON: /api/v1/satellites/53926 · /tle

For live sub-satellite position, see the globe view (requires WebGL).

§ Visibility from observer

Set your observer location to see the next 7 days of passes ≥ 10°. The values pass through the URL so the page stays shareable.

No JS? Fill the form by hand. The geolocation button needs JavaScript.